[[{"header":{"parameterUnit":"m.s-1","parameterCategory":1,"la1":30.2991,"la2":30.254,"lo1":-89.0895,"lo2":-89.0444,"dy":0.0017,"dx":0.0017,"nx":28,"ny":28,"refTime":"2025-03-26T21:00:00:Z","depth":0,"parameterNumber":2,"parameterNumberName":"U-component_of_WINDS"},"data":[0,0,0,0,0,0,0,0,0,0,0,0,0,0,0,0,0,0,0,0,0,0,0,0,0,0,0,0,0,0,0,0,0,0,0,0,0,0,0,0,0,0,0,0,0,0,0,0,0,0,0,0,0,0,0,0,0,0,-1.7679,-1.7679,0,-1.7697,-1.7698,-1.7698,-1.763,-1.7628,-1.7626,-1.7624,-1.7651,-1.7654,-1.7656,0,0,0,0,0,0,0,0,0,0,0,0,0,-1.7589,-1.7591,-1.7679,-1.7679,-1.7679,-1.7697,-1.7698,-1.7698,-1.763,-1.7628,-1.7625,-1.7623,-1.765,-1.7653,-1.7657,0,0,0,0,0,0,0,0,0,0,0,0,0,-1.7621,-1.7592,-1.7679,-1.7647,-1.7645,-1.7697,-1.7698,-1.7698,-1.7631,-1.7628,-1.7625,-1.7622,-1.7649,-1.7653,-1.7657,-1.7743,0,0,-1.7669,-1.7671,0,0,0,0,0,0,0,0,-1.7619,-1.7624,-1.7652,-1.765,-1.7647,-1.7658,-1.7676,-1.7713,-1.7632,-1.7636,-1.7624,-1.762,-1.7656,-1.766,-1.767,-1.7744,-1.7745,-1.7669,-1.7672,-1.7674,-1.7675,0,0,0,0,0,0,0,-1.7617,-1.7623,-1.7686,-1.7652,-1.7649,-1.7634,-1.7635,-1.7683,-1.7664,-1.7636,-1.7631,-1.7634,-1.7655,-1.7667,-1.767,-1.7746,-1.7669,-1.7673,-1.7675,-1.7677,-1.789,-1.7894,0,0,0,0,0,0,-1.7618,-1.7621,-1.7686,-1.7687,-1.7625,-1.7638,-1.7639,-1.7658,-1.7663,-1.7661,-1.7636,-1.763,-1.7661,-1.7666,-1.7671,-1.7772,-1.7674,-1.7677,-1.7679,-1.7887,-1.7891,-1.7895,0,0,0,0,0,0,-1.7616,-1.7624,-1.7685,-1.7653,-1.7659,-1.7643,-1.7664,-1.766,-1.7671,-1.7663,-1.766,-1.7652,-1.7659,-1.7665,-1.7725,-1.7772,-1.7679,-1.7683,-1.7883,-1.7888,-1.7893,-1.7974,0,0,0,0,0,0,-1.7614,-1.7624,-1.7655,-1.7654,-1.7661,-1.7737,-1.7667,-1.7662,-1.7678,-1.767,-1.7677,-1.7675,-1.7657,-1.7719,-1.7729,-1.7776,-1.7686,-1.7879,-1.7885,-1.7891,-1.7967,-1.7981,-1.7993,0,0,0,0,0,-1.7611,-1.7679,-1.7657,-1.7666,-1.77,-1.774,-1.7744,-1.772,-1.7682,-1.7714,-1.7708,-1.7675,-1.7764,-1.7726,-1.7736,-1.7785,-1.7876,-1.7884,-1.7891,-1.7962,-1.7979,-1.7993,0,0,0,0,0,0,-1.769,-1.7679,-1.7654,-1.7724,-1.7733,-1.7728,-1.7768,-1.7739,-1.7761,-1.7754,-1.7725,-1.7727,-1.7792,-1.7794,-1.7751,-1.7868,-1.7814,-1.7824,-1.7864,-1.788,-1.7893,-1.7892,-1.7689,0,0,0,0,0,-1.7715,-1.7747,-1.7736,-1.7798,-1.7804,-1.7785,-1.7802,-1.7782,-1.7791,-1.7796,-1.7794,-1.7807,-1.7837,-1.7859,-1.7887,-1.7966,-1.7967,-1.8005,-1.8018,-1.8028,-1.8038,-1.808,-1.8097,-1.7919,-1.7919,-1.7919,0,0,-1.7769,-1.7766,-1.7789,-1.7814,-1.7819,-1.7854,-1.7789,-1.7829,-1.7855,-1.7803,-1.7858,-1.7857,-1.7869,-1.7939,-1.7969,-1.7943,-1.8087,-1.8038,-1.8046,-1.805,-1.809,-1.8106,-1.8121,-1.7924,-1.7923,-1.7922,0,0,-1.7884,-1.7884,-1.7936,-1.7941,-1.7948,-1.7935,-1.7947,-1.7946,-1.7943,-1.7997,-1.7958,-1.7989,-1.8043,-1.8052,-1.8065,-1.818,-1.8151,-1.819,-1.8259,-1.83,-1.8314,-1.8327,-1.8369,-1.8384,-1.8199,-1.8199,-1.8199,0,-1.795,-1.7999,-1.7967,-1.8009,-1.8022,-1.7972,-1.8025,-1.8032,-1.8049,-1.806,-1.8028,-1.8093,-1.8098,-1.8169,-1.8197,-1.8208,-1.8222,-1.819,-1.8314,-1.8326,-1.8338,-1.8377,-1.8393,-1.8204,-1.8204,-1.8203,-1.8203,0,-1.808,-1.8115,-1.8156,-1.817,-1.8187,-1.8235,-1.8212,-1.8233,-1.8211,-1.8202,-1.8257,-1.826,-1.8287,-1.8302,-1.8283,-1.8371,-1.8354,-1.8319,-1.8265,-1.836,-1.8397,-1.8412,-1.8211,-1.8209,-1.8208,-1.8207,0,0,-1.8249,-1.8242,-1.8258,-1.8263,-1.8266,-1.8293,-1.8338,-1.8361,-1.8381,-1.8393,-1.8431,-1.8476,-1.8443,-1.8457,-1.8437,-1.8473,-1.8565,-1.8434,-1.8434,-1.8459,-1.8663,-1.869,-1.8708,-1.8544,-1.8547,-1.8549,-1.8662,0,-1.8362,-1.8437,-1.8409,-1.8487,-1.8518,-1.847,-1.8509,-1.8516,-1.8507,-1.8535,-1.8526,-1.8558,-1.8512,-1.852,-1.8553,-1.8547,-1.8606,-1.8538,-1.8582,-1.8584,-1.8582,-1.8727,-1.8757,-1.8863,-1.8676,-1.8679,-1.868,0,-1.8505,-1.852,-1.8601,-1.8596,-1.8608,-1.8644,-1.8662,-1.8688,-1.8695,-1.8686,-1.8699,-1.8671,-1.8717,-1.866,-1.8723,-1.8678,-1.8693,-1.8693,-1.8696,-1.8701,-1.8639,-1.8738,-1.8897,-1.8913,-1.8703,-1.8701,-1.8699,0,-1.8621,-1.8662,-1.8714,-1.872,-1.8716,-1.8742,-1.8742,-1.8745,-1.8761,-1.8777,-1.8787,-1.881,-1.8823,-1.8842,-1.8822,-1.8782,-1.8888,-1.883,-1.8883,-1.8884,-1.891,-1.8909,-1.9075,-1.8918,-1.8917,-1.8917,-1.8917,0,-1.8752,-1.8803,-1.8766,-1.8799,-1.8855,-1.8822,-1.8879,-1.8874,-1.8876,-1.8908,-1.8868,-1.8899,-1.8869,-1.8898,-1.8882,-1.8937,-1.8943,-1.8939,-1.8934,-1.8943,-1.8944,-1.8955,-1.8947,-1.8921,-1.892,-1.8919,-1.8919,0,-1.8892,-1.8869,-1.8924,-1.8914,-1.8912,-1.8954,-1.8947,-1.8977,-1.8964,-1.9005,-1.9013,-1.8995,-1.9026,-1.9006,-1.904,-1.9029,-1.91,-1.9085,-1.9097,-1.9094,-1.9149,-1.9145,-1.933,-1.9353,-1.9179,-1.918,-1.9182,0,-1.8978,-1.9016,-1.9009,-1.9026,-1.9027,-1.9056,-1.907,-1.9039,-1.9056,-1.9065,-1.9095,-1.9122,-1.9143,-1.9196,-1.9187,-1.9211,-1.9197,-1.926,-1.9201,-1.9209,-1.92,-1.9198,-1.9202,-1.9273,-1.9275,-1.9277,-1.9278,0,-1.9133,-1.9119,-1.914,-1.9157,-1.9175,-1.9188,-1.9197,-1.9214,-1.9182,-1.9204,-1.9234,-1.925,-1.9281,-1.931,-1.933,-1.9332,-1.9301,-1.9296,-1.931,-1.9321,-1.9327,-1.9325,-1.9131,-1.9293,-1.9292,-1.9291,-1.929,-1.9289,-1.9249,-1.928,-1.9279,-1.9304,-1.9307,-1.9317,-1.9344,-1.9334,-1.9358,-1.9379,-1.9359,-1.9396,-1.94,-1.9424,-1.9429,-1.9458,-1.9433,-1.9453,-1.9459,-1.9464,-1.9472,-1.932,-1.9462,-1.9461,-1.9461,-1.9461,-1.946,0,-1.9403,-1.9399,-1.9422,-1.9435,-1.9455,-1.9419,-1.9428,-1.9447,-1.9479,-1.9484,-1.9504,-1.9539,-1.9565,-1.9557,-1.9581,-1.9606,-1.9592,-1.9613,-1.9612,-1.9613,-1.9493,-1.9479,-1.9624,-1.9624,-1.9624,-1.9624,-1.9624,-1.9624,-1.9485,-1.9535,-1.9521,-1.9572,-1.9569,-1.9602,-1.961,-1.9618,-1.9622,-1.9662,-1.9682,-1.9675,-1.9675,-1.9698,-1.9722,-1.9718,-1.973,-1.9757,-1.9749,-1.9638,-1.9621,-1.9606,-1.9593,-1.9759,-1.9759,-1.9866,-1.9867,-1.9868]},{"header":{"parameterUnit":"m.s-1","parameterCategory":1,"la1":30.2991,"la2":30.254,"lo1":-89.0895,"lo2":-89.0444,"dy":0.0017,"dx":0.0017,"nx":28,"ny":28,"refTime":"2025-03-26T21:00:00:Z","depth":0,"parameterNumber":3,"parameterNumberName":"V-component_of_WINDS"},"data":[0,0,0,0,0,0,0,0,0,0,0,0,0,0,0,0,0,0,0,0,0,0,0,0,0,0,0,0,0,0,0,0,0,0,0,0,0,0,0,0,0,0,0,0,0,0,0,0,0,0,0,0,0,0,0,0,0,0,-1.5583,-1.5584,0,-1.5632,-1.5632,-1.5633,-1.5639,-1.5639,-1.5638,-1.5638,-1.5684,-1.5686,-1.5688,0,0,0,0,0,0,0,0,0,0,0,0,0,-1.5491,-1.5493,-1.5583,-1.5584,-1.5584,-1.5632,-1.5632,-1.5633,-1.5639,-1.5639,-1.5638,-1.5638,-1.5684,-1.5686,-1.5688,0,0,0,0,0,0,0,0,0,0,0,0,0,-1.5535,-1.5494,-1.5583,-1.5593,-1.5595,-1.5631,-1.5632,-1.5633,-1.5639,-1.5639,-1.5638,-1.5637,-1.5683,-1.5685,-1.5688,-1.5717,0,0,-1.5696,-1.5697,0,0,0,0,0,0,0,0,-1.5532,-1.5538,-1.5591,-1.5592,-1.5594,-1.5629,-1.5617,-1.5661,-1.564,-1.5622,-1.5638,-1.5637,-1.5666,-1.567,-1.568,-1.5719,-1.5721,-1.5696,-1.5697,-1.5698,-1.5699,0,0,0,0,0,0,0,-1.5529,-1.5536,-1.5602,-1.5592,-1.5594,-1.5594,-1.5599,-1.5625,-1.5647,-1.5624,-1.5624,-1.563,-1.5667,-1.5678,-1.5682,-1.5722,-1.5696,-1.5698,-1.5699,-1.57,-1.5785,-1.5786,0,0,0,0,0,0,-1.5525,-1.5533,-1.5601,-1.5604,-1.5561,-1.5596,-1.5602,-1.5618,-1.5647,-1.5651,-1.5631,-1.563,-1.5674,-1.5679,-1.5683,-1.5718,-1.5698,-1.5701,-1.5702,-1.5785,-1.5785,-1.5786,0,0,0,0,0,0,-1.5523,-1.5531,-1.5599,-1.5569,-1.5577,-1.5599,-1.5616,-1.562,-1.5631,-1.5652,-1.5656,-1.5638,-1.5674,-1.568,-1.5708,-1.572,-1.5702,-1.5704,-1.5784,-1.5785,-1.5786,-1.5789,0,0,0,0,0,0,-1.552,-1.553,-1.5542,-1.5569,-1.5579,-1.5624,-1.5617,-1.5621,-1.5636,-1.5635,-1.5661,-1.5664,-1.5674,-1.5705,-1.5711,-1.5723,-1.5706,-1.5783,-1.5784,-1.5785,-1.5788,-1.579,-1.5792,0,0,0,0,0,-1.5517,-1.5541,-1.5543,-1.5551,-1.5595,-1.5625,-1.5631,-1.5642,-1.5637,-1.5648,-1.5662,-1.5663,-1.5718,-1.5708,-1.5715,-1.5728,-1.5782,-1.5784,-1.5785,-1.5787,-1.579,-1.5792,0,0,0,0,0,0,-1.5514,-1.5545,-1.5547,-1.5581,-1.56,-1.5626,-1.5641,-1.5645,-1.5666,-1.5664,-1.5677,-1.5682,-1.571,-1.5722,-1.571,-1.5757,-1.5749,-1.5752,-1.5748,-1.5751,-1.5753,-1.5749,-1.5708,0,0,0,0,0,-1.5517,-1.5541,-1.5565,-1.5593,-1.5602,-1.562,-1.5634,-1.5641,-1.5661,-1.5669,-1.5685,-1.5704,-1.5725,-1.5739,-1.5759,-1.579,-1.5795,-1.5802,-1.5804,-1.5806,-1.5808,-1.5824,-1.5827,-1.5792,-1.5792,-1.5792,0,0,-1.5524,-1.5544,-1.5558,-1.5592,-1.5609,-1.5631,-1.5627,-1.5651,-1.5667,-1.5672,-1.5701,-1.5713,-1.5734,-1.5764,-1.5777,-1.5774,-1.5819,-1.5808,-1.5809,-1.5811,-1.5826,-1.5829,-1.5832,-1.5793,-1.5793,-1.5793,0,0,-1.5549,-1.5566,-1.559,-1.5607,-1.5631,-1.5643,-1.5648,-1.5674,-1.5682,-1.5711,-1.5715,-1.5734,-1.577,-1.5785,-1.5798,-1.5826,-1.5828,-1.5833,-1.5843,-1.5858,-1.5861,-1.5863,-1.5873,-1.5876,-1.5835,-1.5835,-1.5835,0,-1.5554,-1.5589,-1.5602,-1.5626,-1.564,-1.5647,-1.5671,-1.5685,-1.5715,-1.5724,-1.572,-1.5766,-1.5781,-1.5813,-1.582,-1.5831,-1.5836,-1.583,-1.586,-1.5862,-1.5865,-1.5874,-1.5877,-1.5835,-1.5835,-1.5835,-1.5835,0,-1.5594,-1.5618,-1.5634,-1.5664,-1.568,-1.5703,-1.5719,-1.5733,-1.5739,-1.575,-1.5778,-1.5797,-1.5821,-1.5829,-1.5835,-1.5862,-1.5859,-1.5857,-1.585,-1.5868,-1.5877,-1.5881,-1.5836,-1.5836,-1.5836,-1.5836,0,0,-1.5618,-1.5654,-1.566,-1.5673,-1.57,-1.5718,-1.5741,-1.5766,-1.5777,-1.5797,-1.5816,-1.5847,-1.5845,-1.5859,-1.5866,-1.5879,-1.59,-1.5876,-1.5876,-1.5879,-1.593,-1.593,-1.5934,-1.5901,-1.5902,-1.5902,-1.5928,0,-1.5645,-1.5688,-1.57,-1.5735,-1.5757,-1.5763,-1.5783,-1.58,-1.5811,-1.583,-1.5842,-1.5863,-1.586,-1.5868,-1.5882,-1.5894,-1.591,-1.5893,-1.5917,-1.5918,-1.5911,-1.5939,-1.594,-1.5964,-1.5931,-1.5932,-1.5932,0,-1.5682,-1.5703,-1.5741,-1.5765,-1.5774,-1.5792,-1.5815,-1.5834,-1.5853,-1.586,-1.5876,-1.5881,-1.5904,-1.5895,-1.5926,-1.5914,-1.5925,-1.5932,-1.5933,-1.5936,-1.5926,-1.5941,-1.5971,-1.5974,-1.5938,-1.5937,-1.5937,0,-1.5695,-1.5733,-1.5761,-1.5771,-1.58,-1.5812,-1.5824,-1.5843,-1.5857,-1.5877,-1.5885,-1.5907,-1.5918,-1.5934,-1.5945,-1.5938,-1.5974,-1.5967,-1.5979,-1.5979,-1.5987,-1.5986,-1.6018,-1.5994,-1.5994,-1.5994,-1.5994,0,-1.5723,-1.5746,-1.5767,-1.5783,-1.5809,-1.5821,-1.5845,-1.5857,-1.5874,-1.5892,-1.5899,-1.5915,-1.5928,-1.5946,-1.5955,-1.5978,-1.5983,-1.5989,-1.5991,-1.5988,-1.5987,-1.5995,-1.5993,-1.5995,-1.5995,-1.5995,-1.5995,0,-1.5742,-1.5757,-1.5787,-1.5811,-1.5818,-1.5835,-1.5855,-1.5871,-1.5882,-1.5905,-1.5911,-1.5928,-1.5949,-1.5961,-1.5988,-1.5993,-1.6019,-1.6021,-1.6013,-1.6014,-1.6025,-1.6024,-1.6063,-1.6068,-1.6042,-1.6042,-1.6042,0,-1.5759,-1.5777,-1.5803,-1.5816,-1.5829,-1.585,-1.5864,-1.5876,-1.589,-1.5914,-1.5926,-1.5948,-1.5967,-1.6,-1.6014,-1.6034,-1.6035,-1.6048,-1.6038,-1.6035,-1.6035,-1.6033,-1.6035,-1.6049,-1.6049,-1.605,-1.605,0,-1.5788,-1.5794,-1.5815,-1.5838,-1.5854,-1.5873,-1.5891,-1.5901,-1.5916,-1.5931,-1.5954,-1.5968,-1.5995,-1.6016,-1.6038,-1.6048,-1.6051,-1.6053,-1.6056,-1.6054,-1.6048,-1.6051,-1.6017,-1.6052,-1.6051,-1.6051,-1.6051,-1.6051,-1.5806,-1.5821,-1.5842,-1.5865,-1.588,-1.5896,-1.5912,-1.5925,-1.5944,-1.5968,-1.5974,-1.5997,-1.6015,-1.6044,-1.6055,-1.6073,-1.607,-1.6076,-1.6077,-1.6079,-1.6079,-1.6046,-1.6077,-1.6077,-1.6076,-1.6076,-1.6076,0,-1.5834,-1.5848,-1.5868,-1.5894,-1.5911,-1.5913,-1.5933,-1.5946,-1.5967,-1.5984,-1.6002,-1.6027,-1.6047,-1.6063,-1.6083,-1.6094,-1.6095,-1.6099,-1.6098,-1.61,-1.608,-1.6074,-1.6097,-1.6097,-1.6097,-1.6097,-1.6097,-1.6097,-1.5851,-1.5877,-1.5886,-1.5919,-1.5932,-1.5955,-1.5966,-1.5981,-1.5995,-1.6023,-1.604,-1.605,-1.6066,-1.6087,-1.6105,-1.6109,-1.6116,-1.6119,-1.6123,-1.6104,-1.6101,-1.6099,-1.6094,-1.6121,-1.6121,-1.6141,-1.6142,-1.6142]}]]